OBJECT C, 61229

Orbit data source: Space-Track

You're viewing an Uncataloged Satellite

Recently launched and/or uncataloged satellites may have evolving metadata. Metadata may include but not limited to: Owner, Maufacturer, Bus, Motor, and Mission.

OBJECT C, 61229 is a Chinese satellite in SSO that was launched on Tue, 24 Sep 2024 UTC via a JIELONG-3 launch vehicle from the Yellow Sea Launch Area, China (YSLA). Unknown objects in Earth's orbit typically refer to objects detected orbiting the Earth but have not yet been identified or cataloged. These objects could be anything from previously untracked satellites, spent rocket stages, debris from satellite collisions, or even natural meteoroids temporarily captured by Earth's gravity.

Loading next visibility...
Identifier
61229, 2024-173C
Orbit
SSO
Country
Flag of CNCN / PRC
Related business
None
Manufacturer
Unknown
Mission
Operational Amateur Imaging
Bus & Motor
Unknown
Mass
Unknown
Launch date (UTC)
2024-09-24 (2 years ago)
Launch vehicle
JIELONG-3
Launch site
Yellow Sea Launch Area, China (YSLA)
Object type
Unknown
Shape & HBR
Box + 1 Pan, 1.0 m
Radar Cross Section
3.032 m², Medium (>0.1 m² and < 1m²)

Expand to show TLE details & history
Last TLE update: 8 hours ago

TLE from 8 hours ago
0 OBJECT C
1 61229U 24173C   26171.50701370  .00029613  00000-0  53301-3 0  9993
2 61229  97.3407 254.2081 0011640 131.1679 229.0578 15.49704175 97242
Epoch: 2026-06-20T12:10Z
TLE epoch observation values (Epoch: 2026-06-20T12:10:05.983Z)
Latitude
-0.00008°
Longitude
162.96253°
Altitude
425.913 km
Speed
7.653 km/s
True Right ascension
16h 56m 49s
True Declination
0° 00' 00"
Sunlit
Object was in full shadow at epoch
Visualization orbit readout
Latitude
Unknown
Longitude
Unknown
Altitude
Unknown
Speed
Unknown
Apparent Right ascension
Unknown
Apparent Declination
Unknown
Sunlit
N/A
Visualization observer readout
Local Sidereal Time
07:24:10
Azimuth
Unknown
Elevation
Unknown
Doppler factor
Unknown
Orbital elements
Apogee altitude
422.421 km
Perigee altitude
406.608 km
Semi-major axis
6,792.651 km
Eccentricity
0.00116
Inclination
97.3407°
RAAN
254.2081°
Arg. of periapsis
131.1679°
True anomaly
228.95714°
Mean anomaly
229.0578°
Eccentric anomaly
229.00746°
Mean motion
3.8769 °/min
Orbital period
92.86 mins
BSTAR
0.00053301
Loading maneuver chart data...
Computing Atmospheric mass density...
Loading historical data...
Loading historical data...
Loading historical data...
Loading historical data...
Loading historical data...
Loading historical data...
Loading historical data...

Documentation

Showing up to 5 results
|